FW7943 Weather Reports


time (UTC)temp
C
wind
direction
speed
KPH
gust
KPH
rain 1hr
cm
rain 24hr
cm
rain mn
cm
humidity
%
barometer
mb
20260504050415 7 4 0.0 0.0 0.00 0.00 0.00 63 1016.8
20260504045912 7 18 0.0 0.0 0.00 0.00 0.00 61 1016.6
20260504045408 7 18 0.0 0.0 0.00 0.00 0.00 61 1016.5
20260504044904 8 18 0.0 0.0 0.00 0.00 0.00 61 1016.6
20260504044402 7 18 0.0 0.0 0.00 0.00 0.00 59 1016.5
20260504043859 7 18 0.0 0.0 0.00 0.00 0.00 60 1016.5
20260504043356 7 18 0.0 0.0 0.00 0.00 0.00 59 1016.5
20260504042853 7 18 0.0 0.0 0.00 0.00 0.00 62 1016.4
20260504042349 7 18 0.0 0.0 0.00 0.00 0.00 59 1016.4
20260504041846 7 345 0.0 0.0 0.00 0.00 0.00 60 1016.6
20260504041342 7 354 0.0 0.0 0.00 0.00 0.00 59 1016.8
20260504040838 7 355 0.0 0.0 0.00 0.00 0.00 61 1016.7
20260504040336 7 356 0.0 0.0 0.00 0.00 0.00 60 1016.6
20260504035831 7 356 0.0 0.0 0.00 0.00 0.00 61 1016.5
20260504035330 7 356 0.0 0.0 0.00 0.00 0.00 59 1016.3
20260504034826 7 355 0.0 0.0 0.00 0.00 0.00 57 1016.5
20260504034319 8 355 0.0 0.0 0.00 0.00 0.00 56 1016.7
20260504033815 8 355 0.0 0.0 0.00 0.00 0.00 57 1016.4
20260504033314 7 355 0.0 0.0 0.00 0.00 0.00 57 1016.3
20260504032809 8 337 0.0 0.0 0.00 0.00 0.00 58 1016.5
20260504032307 8 325 0.0 0.0 0.00 0.00 0.00 57 1016.6
20260504031803 8 324 0.0 0.0 0.00 0.00 0.00 58 1016.2
20260504031301 8 327 0.0 0.0 0.00 0.00 0.00 55 1016.3
20260504030757 8 335 0.0 0.0 0.00 0.00 0.00 57 1016.5
20260504030254 8 131 1.6 1.6 0.00 0.00 0.00 54 1016.4
20260504025750 8 58 0.0 0.0 0.00 0.00 0.00 56 1016.3
20260504025247 8 16 0.0 0.0 0.00 0.00 0.00 57 1016.4
20260504024744 8 18 0.0 0.0 0.00 0.00 0.00 58 1016.4
20260504024240 8 18 0.0 0.0 0.00 0.00 0.00 57 1016.4
20260504023738 8 17 0.0 0.0 0.00 0.00 0.00 58 1016.4
20260504023234 8 17 0.0 0.0 0.00 0.00 0.00 59 1016.4
20260504022730 7 23 0.0 0.0 0.00 0.00 0.00 58 1016.5
20260504022226 7 36 0.0 0.0 0.00 0.00 0.00 57 1016.6
20260504021724 7 37 0.0 1.6 0.00 0.00 0.00 56 1016.3
20260504021221 7 36 0.0 1.6 0.00 0.00 0.00 55 1016.4
20260504020717 7 36 1.6 1.6 0.00 0.00 0.00 53 1016.5
20260504020214 7 7 0.0 0.0 0.00 0.00 0.00 54 1016.6
20260504015710 7 7 0.0 0.0 0.00 0.00 0.00 53 1016.4
20260504015206 7 7 0.0 0.0 0.00 0.00 0.00 52 1016.3
20260504014702 7 7 0.0 0.0 0.00 0.00 0.00 53 1016.3
20260504014159 7 7 0.0 0.0 0.00 0.00 0.00 53 1016.2
20260504013657 7 7 0.0 0.0 0.00 0.00 0.00 54 1016.1
20260504013154 7 7 0.0 0.0 0.00 0.00 0.00 53 1016.2
20260504012651 7 7 0.0 0.0 0.00 0.00 0.00 52 1016.1
20260504012149 8 7 0.0 0.0 0.00 0.00 0.00 52 1016.1
20260504011646 8 7 0.0 0.0 0.00 0.00 0.00 52 1016.0
20260504011142 8 7 0.0 0.0 0.00 0.00 0.00 53 1015.9
20260504010638 8 7 0.0 0.0 0.00 0.00 0.00 53 1015.7
20260504010134 8 7 0.0 0.0 0.00 0.00 0.00 52 1015.9
20260504005631 8 7 0.0 0.0 0.00 0.00 0.00 51 1015.6
20260504005127 8 7 0.0 0.0 0.00 0.00 0.00 52 1015.9
20260504004626 8 323 0.0 0.0 0.00 0.00 0.00 49 1015.6
20260504004123 8 323 0.0 0.0 0.00 0.00 0.00 49 1015.7
20260504003619 9 323 0.0 0.0 0.00 0.00 0.00 50 1015.7
20260504003115 9 323 0.0 0.0 0.00 0.00 0.00 48 1015.9
20260504002612 10 322 0.0 0.0 0.00 0.00 0.00 47 1015.9
20260504002110 10 322 0.0 0.0 0.00 0.00 0.00 46 1016.0
20260504001608 10 322 0.0 0.0 0.00 0.00 0.00 44 1015.5
20260504001103 10 322 0.0 0.0 0.00 0.00 0.00 42 1015.9
20260504000601 11 322 0.0 0.0 0.00 0.00 0.00 43 1015.9
20260504000058 11 320 0.0 0.0 0.00 0.00 0.00 41 1015.6
20260503235556 11 293 3.2 3.2 0.00 0.00 0.00 40 1015.7
20260503235053 11 322 0.0 0.0 0.00 0.00 0.00 40 1016.0
20260503234550 11 318 1.6 1.6 0.00 0.00 0.00 39 1015.9
20260503234049 12 305 1.6 1.6 0.00 0.00 0.00 37 1015.7
20260503233545 12 307 3.2 3.2 0.00 0.00 0.00 37 1015.5
20260503233041 12 311 3.2 3.2 0.00 0.00 0.00 37 1016.1
20260503232538 12 317 3.2 3.2 0.00 0.00 0.00 39 1015.9
20260503232036 12 313 3.2 3.2 0.00 0.00 0.00 37 1015.9
20260503231533 12 290 3.2 4.8 0.00 0.00 0.00 37 1015.9
20260503231030 12 287 4.8 4.8 0.00 0.00 0.00 37 1016.1
20260503230526 12 275 3.2 3.2 0.00 0.00 0.00 37 1015.7
20260503230024 12 298 3.2 3.2 0.00 0.00 0.00 34 1015.9
20260503225521 12 256 6.4 8.0 0.00 0.00 0.00 36 1016.2
20260503225015 12 264 4.8 4.8 0.00 0.00 0.00 36 1016.0
20260503224513 12 290 4.8 4.8 0.00 0.00 0.00 37 1016.2
20260503224011 12 289 4.8 4.8 0.00 0.00 0.00 37 1016.1
20260503223508 12 297 6.4 9.7 0.00 0.00 0.00 35 1016.0
20260503223004 13 296 6.4 8.0 0.00 0.00 0.00 36 1016.1
20260503222502 13 291 3.2 3.2 0.00 0.00 0.00 35 1016.1
20260503222000 13 313 1.6 3.2 0.00 0.00 0.00 36 1016.0
20260503221458 13 293 6.4 11.3 0.00 0.00 0.00 36 1016.0
20260503220955 13 236 4.8 4.8 0.00 0.00 0.00 34 1016.2
20260503220452 13 291 4.8 4.8 0.00 0.00 0.00 33 1015.9
20260503215948 13 325 4.8 4.8 0.00 0.00 0.00 36 1016.0
20260503215445 13 311 4.8 4.8 0.00 0.00 0.00 35 1016.0
20260503214943 13 251 4.8 4.8 0.00 0.00 0.00 36 1016.0
20260503214441 13 309 3.2 4.8 0.00 0.00 0.00 35 1015.7
20260503213938 13 288 6.4 8.0 0.00 0.00 0.00 34 1016.2
20260503213436 13 330 3.2 3.2 0.00 0.00 0.00 34 1016.0
20260503212932 12 319 3.2 4.8 0.00 0.00 0.00 35 1016.1
20260503212430 13 273 9.7 11.3 0.00 0.00 0.00 35 1016.3
20260503211927 13 308 0.0 1.6 0.00 0.00 0.00 33 1016.0
20260503211424 12 336 3.2 3.2 0.00 0.00 0.00 35 1016.1
20260503210919 13 330 3.2 8.0 0.00 0.00 0.00 36 1016.3
20260503210416 13 293 4.8 4.8 0.00 0.00 0.00 36 1016.3
20260503205916 12 288 6.4 8.0 0.00 0.00 0.00 36 1016.2
20260503205414 13 325 4.8 8.0 0.00 0.00 0.00 35 1016.3
20260503204910 13 305 3.2 3.2 0.00 0.00 0.00 39 1016.2
20260503204407 13 298 6.4 8.0 0.00 0.00 0.00 37 1016.3
20260503203904 13 282 4.8 4.8 0.00 0.00 0.00 36 1016.1
20260503203402 12 334 1.6 3.2 0.00 0.00 0.00 35 1016.5
20260503202858 12 321 4.8 4.8 0.00 0.00 0.00 38 1016.2
20260503202357 13 301 4.8 4.8 0.00 0.00 0.00 39 1016.5
20260503201855 12 313 1.6 3.2 0.00 0.00 0.00 39 1016.6
20260503201351 12 12 6.4 14.5 0.00 0.00 0.00 36 1016.5
20260503200849 12 342 4.8 8.0 0.00 0.00 0.00 38 1016.9
20260503200344 12 325 4.8 4.8 0.00 0.00 0.00 37 1016.6
20260503195842 12 302 4.8 4.8 0.00 0.00 0.00 38 1016.9
20260503195338 12 358 1.6 1.6 0.00 0.00 0.00 37 1016.9
20260503194836 12 337 3.2 3.2 0.00 0.00 0.00 36 1017.1
20260503194332 13 340 6.4 8.0 0.00 0.00 0.00 38 1017.2
20260503193828 13 286 4.8 8.0 0.00 0.00 0.00 36 1017.4
20260503193324 12 292 8.0 9.7 0.00 0.00 0.00 37 1017.7
20260503192820 13 256 3.2 4.8 0.00 0.00 0.00 37 1017.5
20260503192316 12 314 1.6 3.2 0.00 0.00 0.00 37 1017.6
20260503191812 12 216 3.2 3.2 0.00 0.00 0.00 39 1017.7
20260503191309 12 5 4.8 4.8 0.00 0.00 0.00 35 1018.0
20260503190806 12 299 6.4 9.7 0.00 0.00 0.00 37 1017.9
20260503190303 12 284 4.8 4.8 0.00 0.00 0.00 38 1018.1
20260503185800 12 2 1.6 3.2 0.00 0.00 0.00 36 1018.1
20260503185255 12 320 4.8 8.0 0.00 0.00 0.00 36 1018.2
20260503184755 12 299 6.4 8.0 0.00 0.00 0.00 34 1018.3
20260503184252 12 346 8.0 11.3 0.00 0.00 0.00 36 1017.9
20260503183748 12 308 1.6 3.2 0.00 0.00 0.00 34 1018.2
20260503183246 11 2 1.6 1.6 0.00 0.00 0.00 35 1018.3
20260503182743 11 316 3.2 3.2 0.00 0.00 0.00 37 1018.3
20260503182242 11 88 4.8 4.8 0.00 0.00 0.00 34 1018.3
20260503181738 10 291 9.7 11.3 0.00 0.00 0.00 37 1018.3
20260503181236 11 285 11.3 12.9 0.00 0.00 0.00 36 1018.3
20260503180732 11 279 8.0 8.0 0.00 0.00 0.00 39 1018.5
20260503180230 11 314 1.6 3.2 0.00 0.00 0.00 38 1018.5
20260503175726 11 336 1.6 1.6 0.00 0.00 0.00 40 1018.3
20260503175225 11 279 4.8 4.8 0.00 0.00 0.00 40 1018.6
20260503174720 11 286 1.6 3.2 0.00 0.00 0.00 39 1018.8
20260503174218 11 310 3.2 3.2 0.00 0.00 0.00 39 1018.5
20260503173713 11 319 1.6 4.8 0.00 0.00 0.00 41 1018.6
20260503173209 11 331 6.4 9.7 0.00 0.00 0.00 38 1018.9
20260503172707 11 334 1.6 1.6 0.00 0.00 0.00 36 1018.5
20260503172204 11 24 4.8 4.8 0.00 0.00 0.00 39 1019.0
20260503171700 11 7 6.4 8.0 0.00 0.00 0.00 38 1018.9
20260503171157 11 11 3.2 4.8 0.00 0.00 0.00 41 1019.1
20260503170654 10 293 1.6 3.2 0.00 0.00 0.00 40 1019.1
20260503170151 11 19 3.2 3.2 0.00 0.00 0.00 40 1019.1
20260503160113 8 278 6.4 9.7 0.00 0.00 0.00 42 1019.6
20260503150542 7 10 3.2 4.8 0.00 0.00 0.00 43 1019.9
20260503130932 4 319 1.6 1.6 0.00 0.00 0.00 66 1019.9
20260503130430 4 324 1.6 1.6 0.00 0.00 0.00 70 1019.7
20260503110326 0 332 0.0 0.0 0.00 0.00 0.00 94 1018.4
20260503100252 0 2 0.0 0.0 0.00 0.00 0.00 93 1017.6
20260503090212 0 3 0.0 0.0 0.00 0.00 0.00 92 1017.5
20260503081138 0 1 0.0 0.0 0.00 0.00 0.00 88 1016.8
20260503080634 0 0 0.0 0.0 0.00 0.00 0.00 88 1016.8
20260503080132 0 0 0.0 0.0 0.00 0.00 0.00 87 1016.6
20260503072609 1 335 0.0 0.0 0.00 0.00 0.00 83 1016.7